Location: ?????????
(52.2333°N, 54.3833°E)
Time: 07:02:33
(UTC+00:00)

Daily predictions for brighter satellites

Satellite Brightness Start Highest point End
(mag) Time Altitude Azimuth Time Altitude Azimuth Time Altitude Azimuth
CZ-2C R/B 4.3 13:28:35 10° ESE 13:33:08 25° ENE 13:37:35 10° N
YAOGAN 1 4.0 13:31:23 10° ESE 13:34:25 19° ENE 13:37:28 10° NNE
Cosmos 1943 Rocket 3.6 13:29:25 10° WSW 13:34:26 34° NW 13:39:27 10° NNE
Landsat 5 3.4 13:34:20 10° NNE 13:38:14 82° WNW 13:42:10 10° SSW
SMAP 3.1 13:33:53 10° SSE 13:38:33 89° ENE 13:43:15 10° NNW
FALCON 9 DEB 3.1 13:35:16 10° W 13:38:42 78° N 13:42:08 10° E
Cosmos 2278 Rocket 4.4 13:38:40 10° NW 13:41:33 14° NNW 13:44:26 10° NNE
ERBS 3.1 13:38:41 10° W 13:41:53 42° NNW 13:45:06 10° ENE
Cosmos 1758 Rocket 3.6 13:39:27 10° N 13:43:55 90° SW 13:48:16 10° S
Cosmos 1726 Rocket 4.2 13:40:10 10° SSE 13:44:07 35° E 13:48:07 10° NNE
ATLAS 5 CENTAUR R/B 2.8 13:40:23 10° W 13:44:26 37° NNW 13:49:06 10° NE
NOSS 2-2 (E) 4.5 13:42:24 10° NW 13:47:43 90° ENE 13:55:10 10° SE
USA 307 2.9 13:43:35 10° WNW 13:47:54 76° N 13:52:11 10° E
Cosmos 1328 4.2 13:44:45 10° NNW 13:48:41 69° W 13:52:37 10° S
Cosmos 1452 Rocket 3.8 13:45:01 10° SSW 13:50:16 76° WNW 13:55:36 10° NNE
Cosmos 2228 3.1 13:47:30 10° S 13:51:38 52° E 13:55:49 10° NNE
USA 308 2.9 13:48:25 10° WNW 13:52:43 77° N 13:56:58 10° E
CZ-4B R/B 3.8 13:48:23 10° S 13:53:57 66° WSW 13:59:26 10° NNW
Cosmos 1726 4.3 13:50:43 10° SW 13:54:00 28° WNW 13:57:17 10° N
Cosmos 1939 Rocket 3.1 13:50:50 10° SE 13:54:35 44° ENE 13:58:19 10° N
ARGOS 4.4 13:51:49 10° ESE 13:55:49 21° NE 13:59:49 10° N
YAOGAN 6 3.9 13:53:26 10° S 13:56:58 45° W 14:00:33 10° NNW
CZ-4B R/B 1.4 13:54:59 10° NNE 13:58:11 52° E 14:01:18 10° S
Cosmos 1606 Rocket 3.6 13:55:17 10° S 13:59:35 60° E 14:03:57 10° NNE
Meteor 2-16 Rocket 4.4 13:53:58 10° N 14:00:04 70° ENE 14:06:09 10° SSE
Helios 1A Rocket 3.4 13:57:17 10° SE 14:01:08 39° ENE 14:04:58 10° N
NOSS 3-4 (A) 4.3 13:57:03 10° NW 14:03:14 40° NNE 14:09:17 13° E
NOSS 3-4 (C) 4.3 13:57:09 10° NW 14:03:20 40° NNE 14:09:21 13° E
Cosmos 2227 Rocket 2.2 13:58:01 10° NNW 14:03:39 61° NE 14:09:15 10° SE
SKYMED 2 4.2 14:00:11 10° NNE 14:04:12 35° E 14:08:11 10° SSE
Okean-O 3.1 14:00:49 10° SE 14:04:57 40° ENE 14:09:06 10° N
NOSS 2-2 (D) 4.5 14:00:02 10° NW 14:05:16 85° SW 14:12:36 10° SE
GENESIS II 4.4 14:02:32 10° SSW 14:06:29 56° SE 14:10:13 12° NE
Cosmos 1244 Rocket 4.5 14:00:19 10° N 14:06:30 66° ENE 14:12:43 10° SSE
H-2A R/B 2.9 14:02:15 10° ESE 14:06:57 31° ENE 14:11:40 10° N
GEOS 3 Rocket 3.9 14:02:44 10° ESE 14:07:55 52° NE 14:13:10 10° NW
CZ-4C R/B 3.6 14:02:47 10° NW 14:08:22 33° N 14:14:03 13° ENE
Cosmos 2263 Rocket 3.6 14:04:44 10° NNW 14:09:01 21° NNE 14:12:10 14° ENE
FALCON 9 DEB 4.3 14:08:53 10° SSW 14:11:38 26° SSE 14:13:13 18° ESE
CSL-04 Rocket 4.3 14:08:17 10° SE 14:13:15 35° ENE 14:18:11 10° N
Cosmos 1400 Rocket 3.3 14:10:30 10° SSE 14:14:21 40° E 14:18:12 10° NNE
Cosmos 1689 Rocket 2.7 14:13:11 10° NNE 14:15:52 32° E 14:18:31 10° SSE
Cosmos 2058 3.6 14:12:09 10° N 14:15:53 32° ENE 14:19:35 10° SE
CZ-4 R/B 1.6 14:14:35 10° SE 14:18:17 44° ENE 14:21:58 10° N
Cosmos 1892 3.0 14:16:01 10° N 14:19:46 44° ENE 14:23:30 10° SSE
USA 215 3.5 14:16:56 15° E 14:22:21 61° N 14:28:47 10° WNW
Cosmos 1697 Rocket 3.8 14:19:37 10° SSE 14:23:50 22° ESE 14:26:01 18° ENE
Cosmos 1408 3.2 14:21:55 10° N 14:25:17 34° ENE 14:28:25 11° SE
ATLAS 2AS CENTAUR R/B 3.4 14:18:00 10° NW 14:25:23 44° NNE 14:30:24 19° E
Cosmos 1953 Rocket 4.0 14:21:49 10° NNW 14:26:12 67° W 14:30:35 10° S
IRS-1C Rocket 4.1 14:22:01 10° SSE 14:27:18 88° WSW 14:32:38 10° NNW
Cosmos 1331 Rocket 4.0 14:22:17 10° SSW 14:27:27 87° WNW 14:32:39 10° NNE
SeaSat 1 3.0 14:26:51 18° ESE 14:30:06 39° NE 14:34:40 10° NNW
Cosmos 2058 Rocket 3.0 14:28:13 10° S 14:32:39 66° E 14:37:10 10° NNE
Cosmos 1300 2.8 14:30:14 10° SSW 14:34:02 76° WNW 14:37:52 10° N
SL-4 R/B 1.7 14:32:37 10° W 14:36:10 81° S 14:37:54 30° E
BREEZE-M TANK 4.1 14:28:25 10° W 14:36:22 40° SSW 14:38:52 17° SE
Cosmos 1346 Rocket 2.8 14:33:42 10° N 14:37:38 54° ENE 14:41:33 10° SSE
Cosmos 44 3.1 14:33:57 10° SW 14:38:29 76° SE 14:42:12 17° NE
CZ-2D R/B 3.2 14:34:51 10° SSE 14:38:40 88° WSW 14:42:30 10° NNW
USA 305 2.9 14:34:21 10° WNW 14:38:41 79° SSW 14:41:08 25° ESE
Aureole 3 Rocket 3.2 14:35:13 10° S 14:39:20 74° E 14:45:09 10° NNE
Cosmos 1825 2.7 14:37:48 10° N 14:41:19 34° ENE 14:41:57 32° E
SJ-11-01 4.5 14:37:20 10° SE 14:41:49 49° ENE 14:46:21 10° N
Cosmos 968 Rocket 3.4 14:37:33 10° NNW 14:42:50 89° ENE 14:48:01 10° SSE
Cosmos 2297 Rocket 2.6 14:37:55 10° NW 14:43:35 67° WSW 14:49:11 10° SSE
Cosmos 2369 Rocket 4.3 14:40:34 10° W 14:44:59 22° NNW 14:49:25 10° NNE
USA 306 3.0 14:40:46 10° WNW 14:45:04 75° SSW 14:47:16 28° ESE
Cosmos 1315 Rocket 3.7 14:41:51 10° SSE 14:44:38 29° ESE 14:44:38 29° ESE
In-Cosmos 22 Rocket 4.2 14:40:38 10° NNW 14:46:01 81° W 14:51:27 10° S
Cosmos 1980 Rocket 4.0 14:42:48 10° SE 14:43:34 13° SE 14:43:34 13° SE
S3M 4.1 14:41:32 10° SSE 14:47:24 51° E 14:53:22 10° NNE
ERS-2 3.6 14:45:27 10° N 14:48:52 38° WNW 14:52:16 10° SW
MOS 1 Rocket 3.8 14:44:38 10° NNE 14:48:57 36° E 14:53:28 10° SSE
SAR-Lupe-4 3.9 14:45:46 10° N 14:49:21 65° WNW 14:52:53 10° SSW
SJ 16-02 3.6 14:49:17 10° NNE 14:50:10 11° NNE 14:50:10 11° NNE
SL-08 ROCKET BODY 4.4 14:45:39 10° N 14:51:47 83° E 14:57:57 10° SSE
COSMO-SKYMED 1 2.6 14:48:03 10° NNE 14:52:25 85° WNW 14:56:46 10° SSW
CSL-04 Debris 4.1 14:47:57 10° SSE 14:53:21 68° ENE 14:58:48 10° NNW
Cosmos 1340 3.5 14:50:21 10° NNW 14:54:02 51° W 14:57:43 10° S
H-2A R/B 4.5 14:50:54 10° N 14:54:05 21° WNW 14:57:14 10° WSW
Cosmos 1076 Rocket 3.5 14:50:52 10° N 14:55:04 57° ENE 14:57:52 20° SSE
Cosmos 1302 Rocket 4.0 14:53:03 10° SSW 14:58:20 90° WNW 15:03:41 10° NNE
Cosmos 1417 Rocket 4.4 14:52:17 10° S 14:58:31 74° E 15:04:51 10° NNE
HJ-1C 3.4 15:00:38 56° ENE 15:00:38 56° ENE 15:03:46 10° N
Cosmos 1486 Rocket 4.4 14:57:19 10° NNW 15:02:38 65° WSW 15:07:53 10° S
Lacrosse 5 2.4 14:58:16 10° WNW 15:03:12 49° N 15:05:06 33° ENE
Aureole 3 3.5 15:01:14 10° SSW 15:04:13 50° WNW 15:07:09 10° N
Resurs 01 Rocket 4.0 15:09:19 10° NNE 15:09:19 10° NNE 15:09:20 10° NNE
Cosmos 292 Rocket 4.5 15:02:23 10° SW 15:07:06 54° WNW 15:11:52 10° NNE
Meteor 2-3 Rocket 4.3 15:04:31 10° N 15:09:46 36° ENE 15:10:06 35° ENE
YAOGAN 1 2.9 15:05:47 10° S 15:10:06 67° WSW 15:14:26 10° NNW
Cosmos 1503 Rocket 3.9 15:07:14 10° NNW 15:12:29 87° WSW 15:16:22 19° SSE
CZ-2C R/B 3.5 15:06:44 10° S 15:12:32 75° WSW 15:18:10 10° NNW
FALCON 9 DEB 3.1 15:12:20 10° WNW 15:15:37 77° WSW 15:15:37 77° WSW
Cosmos 1553 Rocket 4.1 15:10:41 10° SSW 15:17:02 79° W 15:23:20 10° N
Cosmos 1812 Rocket 4.2 15:13:00 10° S 15:21:37 10° NNE 15:15:52 37° SSE
DMSP B5D1-3 4.4 15:12:12 10° NNE 15:17:21 66° ESE 15:22:28 10° S
ERBS 3.4 15:15:28 10° WNW 15:18:15 36° N 15:18:15 36° N
FALCON 9 DEB 3.8 15:16:15 10° WSW 15:18:41 44° SW 15:18:41 44° SW
Cosmos 2082 3.9 15:16:48 10° NW 15:22:32 71° WSW 15:26:53 18° SSE
Cosmos 1455 3.1 15:18:48 10° S 15:21:06 36° S 15:21:06 36° S
Meteor 2-10 Rocket 3.4 15:18:12 10° S 15:23:31 89° E 15:28:39 10° NNE
FALCON 9 DEB 4.0 15:20:36 10° WSW 15:22:50 40° SW 15:22:50 40° SW
Cosmos 1354 Rocket 4.0 15:18:40 10° NNW 15:23:57 81° WSW 15:27:00 26° SSE
Meteor 2-15 Rocket 4.3 15:19:54 10° S 15:26:02 82° E 15:32:13 10° NNE
USA 307 3.5 15:23:43 10° WNW 15:27:52 48° SSW 15:28:30 44° S
Cosmos 2278 Rocket 4.4 15:26:12 10° NNW 15:28:20 12° N 15:29:59 11° NNE
ATLAS 5 CENTAUR R/B 3.6 15:26:33 10° NW 15:30:21 23° N 15:31:58 20° NNE
USA 308 3.6 15:28:34 10° WNW 15:32:41 46° SSW 15:33:09 44° SSW
ARGOS 3.1 15:31:38 20° SSE 15:35:28 84° WSW 15:40:58 10° NNW
Cosmos 1992 Rocket 3.8 15:32:18 10° SSW 15:37:30 83° ESE 15:39:22 41° NNE
Cosmos 2369 3.6 15:33:10 10° SSW 15:38:47 64° ESE 15:39:08 62° E
Cosmos 1844 Rocket 4.1 15:38:00 10° NNW 15:42:00 23° NNE 15:42:00 23° NNE
Cosmos 1656 4.0 15:37:26 10° SW 15:42:59 67° NW 15:47:09 19° NNE
SL-08 RB Rocket 3.7 15:44:23 74° N 15:44:23 74° N 15:48:31 10° NNW
Cosmos 2151 3.7 15:39:54 10° N 15:42:52 45° N 15:42:52 45° N
GEOS 3 Rocket 4.4 15:43:25 27° S 15:46:00 48° SW 15:51:14 10° NW
H-2A R/B 2.8 15:40:48 10° S 15:46:07 55° W 15:51:30 10° NNW
BREEZE-M R/B 4.2 15:42:18 10° W 15:46:44 59° SSW 15:48:28 46° SE
Geosat 3.8 15:46:16 70° NE 15:46:53 86° ESE 15:51:55 10° SSW
Ariane Rocket 3.0 15:47:25 65° NNE 15:47:25 65° NNE 15:52:03 10° NNW
Cosmos 2227 Rocket 4.0 15:42:33 10° NW 15:47:22 29° WSW 15:52:10 10° SSW
CZ-4 R/B 3.9 15:50:35 10° SW 15:53:32 20° W 15:56:28 10° NW
Cosmos 2263 Rocket 2.1 15:48:19 10° NNW 15:53:51 69° NE 15:53:51 69° NE
NOSS 3-4 (A) 3.7 15:48:03 10° NW 15:54:55 90° ESE 15:56:45 55° SE
NOSS 3-4 (C) 3.7 15:48:09 10° NW 15:55:01 90° NE 15:56:49 56° SE
CZ-4C R/B 3.0 15:51:38 10° NW 15:58:15 57° NE 15:59:14 53° ENE
Cosmos 2184 Rocket 4.3 15:56:15 10° N 16:01:29 53° NE 16:01:29 53° NE
USA 215 3.1 16:04:18 69° ESE 16:05:14 88° SSW 16:11:49 10° WNW
NOSS 3-3 (A) 3.8 16:00:39 10° SW 16:06:35 84° SE 16:06:48 82° E
NOSS 3-3 (C) 3.8 16:00:45 10° SW 16:06:43 84° SE 16:06:55 82° E
Cosmos 1697 Rocket 2.7 16:01:36 10° SW 16:07:13 76° WNW 16:07:49 68° N
SeaSat 1 3.3 16:06:40 41° SW 16:07:34 46° WSW 16:12:20 10° NW
SL-4 R/B 4.2 16:12:05 10° W 16:13:29 21° W 16:13:29 21° W
Cosmos 1825 4.4 16:13:37 10° NW 16:16:39 23° W 16:16:47 23° W
ATLAS 2AS CENTAUR R/B 2.7 16:09:29 10° NW 16:17:08 86° SW 16:17:50 75° SSE
Cosmos 2074 Rocket 4.2 16:16:38 10° N 16:21:39 59° N 16:21:39 59° N
Cosmos 1980 Rocket 4.2 16:24:10 10° SSW 16:25:27 18° SSW 16:25:27 18° SSW
COSMOS 2455 4.2 16:24:40 10° NNW 16:28:52 29° N 16:28:52 29° N
SJ 16-02 3.8 16:26:08 10° NNW 16:27:09 16° NNW 16:27:09 16° NNW
Cosmos 2315 Rocket 4.4 16:25:52 10° SSW 16:31:59 61° WNW 16:38:10 10° N
Resurs 01 Rocket 4.4 16:46:54 13° NNW 16:46:54 13° NNW 16:47:19 10° NNW
Lacrosse 5 3.4 16:41:32 10° WNW 16:44:18 33° WNW 16:44:18 33° WNW
Cosmos 2278 Rocket 4.4 17:10:05 10° NNW 17:11:49 17° N 17:11:49 17° N
ATLAS 5 CENTAUR R/B 4.2 17:11:46 10° NW 17:13:29 20° NNW 17:13:29 20° NNW
Cosmos 2263 Rocket 4.4 17:32:54 10° NW 17:35:33 21° WNW 17:35:33 21° WNW
CZ-4C R/B 3.9 17:40:09 10° NW 17:44:25 39° WNW 17:44:25 39° WNW
NOSS 3-2 (A) 4.5 23:09:37 41° E 23:09:37 41° E 23:14:31 10° NE
Cosmos 1697 Rocket 4.0 23:11:19 36° ENE 23:11:19 36° ENE 23:16:00 10° ESE
ADEOS II 4.1 23:11:56 10° NNE 23:13:34 21° N 23:13:34 21° N
USA 234 3.4 23:19:00 10° ENE 23:24:41 69° ENE 23:24:41 69° ENE
Lacrosse 4 Rocket 4.1 23:29:22 16° E 23:29:22 16° E 23:30:50 10° ENE
ADEOS Rocket 3.7 23:24:28 10° SE 23:29:39 44° ENE 23:35:02 10° N
Resurs 1-4 Rocket 4.4 23:27:58 10° N 23:28:50 14° N 23:28:50 14° N
Cosmos 1980 Rocket 3.7 23:30:56 23° N 23:33:22 32° NE 23:38:20 10° ESE
SL-16 R/B 4.3 23:36:52 16° N 23:36:52 16° N 23:39:13 10° NNE
Lacrosse 5 rocket 4.3 23:38:48 10° ESE 23:38:48 10° ESE 23:38:51 10° ESE
CZ-2D R/B 4.4 23:47:00 10° N 23:47:39 13° N 23:47:39 13° N
